Dew Point Data


Current

Temp 74.0 F. Dew Point 69.1 F.


Dew Point Comfort Scale

dewpoints

Date, Time Temperature Dew Point
Fri Jun 18 00:08:05 2021 77.0 F. 70.0 F.
Fri Jun 18 01:08:05 2021 77.0 F. 70.0 F.
Fri Jun 18 02:08:04 2021 77.0 F. 71.1 F.
Fri Jun 18 03:08:04 2021 79.0 F. 71.1 F.
Fri Jun 18 04:08:05 2021 79.0 F. 71.1 F.
Fri Jun 18 05:08:05 2021 78.0 F. 70.0 F.
Fri Jun 18 06:08:04 2021 76.0 F. 69.1 F.
Fri Jun 18 07:08:05 2021 78.0 F. 69.1 F.
Fri Jun 18 08:08:04 2021 80.0 F. 70.0 F.
Fri Jun 18 09:08:05 2021 80.0 F. 70.0 F.
Fri Jun 18 10:08:05 2021 82.0 F. 72.0 F.
Fri Jun 18 11:08:05 2021 85.0 F. 73.0 F.
Fri Jun 18 12:08:04 2021 87.0 F. 73.9 F.
Fri Jun 18 13:08:04 2021 91.0 F. 73.9 F.
Fri Jun 18 14:08:04 2021 92.0 F. 73.0 F.
Fri Jun 18 15:08:04 2021 92.0 F. 73.0 F.
Fri Jun 18 16:08:05 2021 93.0 F. 73.9 F.
Fri Jun 18 17:08:05 2021 93.0 F. 73.0 F.
Fri Jun 18 18:08:05 2021 92.0 F. 72.0 F.
Fri Jun 18 19:08:05 2021 91.0 F. 73.0 F.
Fri Jun 18 20:08:05 2021 90.0 F. 73.0 F.
Fri Jun 18 21:08:05 2021 87.0 F. 72.0 F.
Fri Jun 18 22:08:05 2021 87.0 F. 72.0 F.
Fri Jun 18 23:08:04 2021 80.0 F. 71.1 F.
Sat Jun 19 00:08:05 2021 80.0 F. 68.0 F.
Sat Jun 19 01:08:04 2021 80.0 F. 68.0 F.
Sat Jun 19 02:08:05 2021 78.0 F. 66.9 F.
Sat Jun 19 03:08:05 2021 79.0 F. 64.9 F.
Sat Jun 19 04:08:05 2021 78.0 F. 64.0 F.
Sat Jun 19 05:08:04 2021 77.0 F. 63.0 F.
Sat Jun 19 06:08:06 2021 73.0 F. 64.0 F.
Sat Jun 19 07:08:05 2021 75.0 F. 64.9 F.
Sat Jun 19 08:08:04 2021 76.0 F. 66.0 F.
Sat Jun 19 09:08:04 2021 78.0 F. 66.0 F.
Sat Jun 19 10:08:05 2021 80.0 F. 66.9 F.
Sat Jun 19 11:08:05 2021 83.0 F. 68.0 F.
Sat Jun 19 12:08:04 2021 83.0 F. 68.0 F.
Sat Jun 19 13:08:05 2021 87.0 F. 68.0 F.
Sat Jun 19 14:08:04 2021 87.0 F. 68.0 F.
Sat Jun 19 15:08:04 2021 88.0 F. 69.1 F.
Sat Jun 19 16:08:05 2021 88.0 F. 69.1 F.
Sat Jun 19 17:08:04 2021 89.0 F. 66.9 F.
Sat Jun 19 18:08:05 2021 87.0 F. 66.9 F.
Sat Jun 19 19:08:05 2021 87.0 F. 66.9 F.
Sat Jun 19 20:08:04 2021 84.0 F. 69.1 F.
Sat Jun 19 21:08:05 2021 84.0 F. 69.1 F.
Sat Jun 19 22:08:05 2021 76.0 F. 71.1 F.
Sat Jun 19 23:08:05 2021 75.0 F. 70.0 F.
Sun Jun 20 00:08:05 2021 75.0 F. 70.0 F.
Sun Jun 20 01:08:05 2021 76.0 F. 68.0 F.
Sun Jun 20 02:08:05 2021 75.0 F. 68.0 F.
Sun Jun 20 03:08:04 2021 75.0 F. 69.1 F.
Sun Jun 20 04:08:04 2021 75.0 F. 69.1 F.
Sun Jun 20 05:08:05 2021 74.0 F. 70.0 F.
Sun Jun 20 06:08:05 2021 74.0 F. 70.0 F.
Sun Jun 20 07:08:05 2021 74.0 F. 70.0 F.
Sun Jun 20 08:08:05 2021 77.0 F. 71.1 F.
Sun Jun 20 09:08:04 2021 81.0 F. 72.0 F.
Sun Jun 20 10:08:04 2021 81.0 F. 72.0 F.
Sun Jun 20 11:08:05 2021 83.0 F. 71.1 F.
Sun Jun 20 12:08:04 2021 86.0 F. 72.0 F.
Sun Jun 20 13:08:05 2021 88.0 F. 72.0 F.
Sun Jun 20 14:08:04 2021 89.0 F. 70.0 F.
Sun Jun 20 15:08:05 2021 89.0 F. 70.0 F.
Sun Jun 20 16:08:05 2021 89.0 F. 68.0 F.
Sun Jun 20 17:08:04 2021 90.0 F. 69.1 F.
Sun Jun 20 18:08:05 2021 90.0 F. 69.1 F.
Sun Jun 20 19:08:05 2021 89.0 F. 69.1 F.
Sun Jun 20 20:08:05 2021 87.0 F. 70.0 F.
Sun Jun 20 21:08:05 2021 81.0 F. 70.0 F.
Sun Jun 20 22:08:04 2021 80.0 F. 69.1 F.
Sun Jun 20 23:08:05 2021 80.0 F. 69.1 F.
Mon Jun 21 00:08:05 2021 80.0 F. 69.1 F.
Mon Jun 21 01:08:05 2021 82.0 F. 69.1 F.
Mon Jun 21 02:08:04 2021 82.0 F. 70.0 F.
Mon Jun 21 03:08:05 2021 73.0 F. 64.9 F.
Mon Jun 21 04:08:05 2021 71.0 F. 71.1 F.
Mon Jun 21 05:08:05 2021 71.0 F. 71.1 F.
Mon Jun 21 06:08:05 2021 72.0 F. 69.1 F.
Mon Jun 21 07:08:04 2021 73.0 F. 71.1 F.
Mon Jun 21 08:08:06 2021 74.0 F. 71.1 F.
Mon Jun 21 09:08:04 2021 74.0 F. 69.1 F.
Mon Jun 21 10:08:05 2021 74.0 F. 69.1 F.